Time,TemperatureF,DewpointF,PressureIn,WindDirection,WindDirectionDegrees,WindSpeedMPH,WindSpeedGustMPH,Humidity,HourlyPrecipIn,Conditions,Clouds,dailyrainin,SoftwareType,DateUTC
2014-08-22 00:01:00,71.5,70.9,29.98,WNW,285,0.0,1.0,98,0.00,,OVC110,0.81,VWS V15.00,2014-08-22 04:01:00,
2014-08-22 00:07:00,71.6,71.3,29.98,WNW,285,0.0,1.0,99,0.00,,OVC110,0.00,VWS V15.00,2014-08-22 04:07:00,
2014-08-22 00:12:00,71.6,71.3,29.98,WNW,285,0.0,0.0,99,0.00,,OVC110,0.00,VWS V15.00,2014-08-22 04:12:00,
2014-08-22 00:17:00,71.7,71.4,29.98,WNW,285,0.0,1.0,99,0.00,,OVC110,0.00,VWS V15.00,2014-08-22 04:17:00,
2014-08-22 00:22:00,71.7,71.4,29.98,WNW,285,0.0,0.0,99,0.01,,OVC110,0.01,VWS V15.00,2014-08-22 04:22:00,
2014-08-22 00:27:00,71.7,71.4,29.98,WNW,285,0.0,0.0,99,0.02,,OVC110,0.02,VWS V15.00,2014-08-22 04:27:00,
2014-08-22 00:32:00,71.8,71.5,29.98,WNW,285,0.0,0.0,99,0.03,,OVC110,0.03,VWS V15.00,2014-08-22 04:32:00,
2014-08-22 00:37:00,71.9,71.6,29.97,WNW,285,1.0,1.0,99,0.04,,OVC110,0.04,VWS V15.00,2014-08-22 04:37:00,
2014-08-22 00:42:00,71.9,71.6,29.97,WNW,285,0.0,0.0,99,0.05,,,0.05,VWS V15.00,2014-08-22 04:42:00,
2014-08-22 00:47:00,71.9,71.6,29.97,WNW,285,0.0,1.0,99,0.06,,,0.06,VWS V15.00,2014-08-22 04:47:00,
2014-08-22 00:52:00,72.0,71.7,29.97,WNW,285,0.0,0.0,99,0.08,,,0.08,VWS V15.00,2014-08-22 04:52:00,
2014-08-22 00:57:00,72.0,71.7,29.97,WNW,285,0.0,1.0,99,0.08,,,0.08,VWS V15.00,2014-08-22 04:57:00,
2014-08-22 01:02:00,72.0,71.7,29.97,WNW,285,0.0,0.0,99,0.09,,,0.09,VWS V15.00,2014-08-22 05:02:00,
2014-08-22 01:07:00,72.1,71.8,29.97,WNW,285,0.0,1.0,99,0.10,,,0.10,VWS V15.00,2014-08-22 05:07:00,
2014-08-22 01:12:00,72.1,71.8,29.97,WNW,285,0.0,0.0,99,0.11,,,0.11,VWS V15.00,2014-08-22 05:12:00,
2014-08-22 01:17:00,72.1,71.8,29.98,West,275,1.0,2.0,99,0.12,,,0.12,VWS V15.00,2014-08-22 05:17:00,
2014-08-22 01:22:00,72.4,72.1,29.98,West,263,2.0,3.0,99,0.17,,,0.17,VWS V15.00,2014-08-22 05:22:00,
2014-08-22 01:27:00,72.6,72.3,29.98,West,280,0.0,4.0,99,0.26,,,0.26,VWS V15.00,2014-08-22 05:27:00,
2014-08-22 01:32:00,72.5,72.2,29.97,NW,309,0.0,2.0,99,0.30,,,0.32,VWS V15.00,2014-08-22 05:32:00,
2014-08-22 01:37:00,72.3,72.0,29.97,NW,309,0.0,2.0,99,0.31,,,0.33,VWS V15.00,2014-08-22 05:37:00,
2014-08-22 01:42:00,72.2,71.9,29.97,NW,309,0.0,0.0,99,0.28,, +RA,0.33,VWS V15.00,2014-08-22 05:42:00,
2014-08-22 01:47:00,72.2,71.9,29.97,NW,309,0.0,3.0,99,0.28,, +RA,0.33,VWS V15.00,2014-08-22 05:47:00,
2014-08-22 01:52:00,72.2,71.9,29.97,NW,308,1.0,3.0,99,0.26,,,0.34,VWS V15.00,2014-08-22 05:52:00,
2014-08-22 01:57:00,71.7,71.4,29.97,NW,309,0.0,10.0,99,0.26,,,0.34,VWS V15.00,2014-08-22 05:57:00,
2014-08-22 02:02:00,70.9,70.3,29.97,WNW,292,0.0,2.0,98,0.25,,,0.34,VWS V15.00,2014-08-22 06:02:00,
2014-08-22 02:07:00,70.5,70.2,29.97,WNW,296,7.0,9.0,99,0.25,,,0.34,VWS V15.00,2014-08-22 06:07:00,
2014-08-22 02:12:00,70.2,69.6,29.96,West,278,8.0,8.0,98,0.23,,,0.34,VWS V15.00,2014-08-22 06:12:00,
2014-08-22 02:17:00,69.9,69.3,29.97,WNW,294,0.0,8.0,98,0.23,,,0.34,VWS V15.00,2014-08-22 06:17:00,
2014-08-22 02:22:00,69.8,69.5,29.96,WNW,294,0.0,2.0,99,0.19,,,0.34,VWS V15.00,2014-08-22 06:22:00,
2014-08-22 02:27:00,69.7,69.1,29.96,WNW,294,0.0,2.0,98,0.19,,,0.34,VWS V15.00,2014-08-22 06:27:00,
2014-08-22 02:32:00,69.6,69.0,29.96,WNW,294,0.0,0.0,98,0.03,,,0.34,VWS V15.00,2014-08-22 06:32:00,
2014-08-22 02:37:00,69.5,68.9,29.96,WNW,294,0.0,1.0,98,0.03,,,0.34,VWS V15.00,2014-08-22 06:37:00,
2014-08-22 02:42:00,69.5,68.9,29.96,WNW,294,0.0,0.0,98,0.01,,OVC095,0.34,VWS V15.00,2014-08-22 06:42:00,
2014-08-22 02:47:00,69.5,68.9,29.96,WNW,294,0.0,1.0,98,0.01,,OVC095,0.34,VWS V15.00,2014-08-22 06:47:00,
2014-08-22 02:52:00,69.4,68.8,29.96,WNW,294,0.0,0.0,98,0.00,,OVC095,0.34,VWS V15.00,2014-08-22 06:52:00,
2014-08-22 02:57:00,69.4,68.8,29.95,WNW,294,0.0,0.0,98,0.00,,OVC095,0.34,VWS V15.00,2014-08-22 06:57:00,
2014-08-22 03:02:00,69.3,68.7,29.96,WNW,294,0.0,0.0,98,0.00,,OVC095,0.34,VWS V15.00,2014-08-22 07:02:00,
2014-08-22 03:07:00,69.3,68.7,29.95,WNW,294,0.0,0.0,98,0.00,,OVC095,0.34,VWS V15.00,2014-08-22 07:07:00,
2014-08-22 03:12:00,69.2,68.6,29.95,WNW,294,0.0,0.0,98,0.00,,OVC095,0.34,VWS V15.00,2014-08-22 07:12:00,
2014-08-22 03:17:00,69.2,68.6,29.95,WNW,294,0.0,0.0,98,0.00,,OVC095,0.34,VWS V15.00,2014-08-22 07:17:00,
2014-08-22 03:22:00,69.1,68.5,29.94,WNW,294,0.0,0.0,98,0.00,,OVC095,0.34,VWS V15.00,2014-08-22 07:22:00,
2014-08-22 03:27:00,69.0,68.4,29.94,WNW,294,0.0,0.0,98,0.00,,OVC095,0.34,VWS V15.00,2014-08-22 07:27:00,
2014-08-22 03:32:00,69.0,68.4,29.94,WNW,294,0.0,0.0,98,0.00,,OVC095,0.34,VWS V15.00,2014-08-22 07:32:00,
2014-08-22 03:37:00,68.9,68.3,29.94,WNW,294,0.0,0.0,98,0.00,,OVC095,0.34,VWS V15.00,2014-08-22 07:37:00,
2014-08-22 03:42:00,68.7,68.1,29.94,WNW,294,0.0,0.0,98,0.00,,BKN085,0.34,VWS V15.00,2014-08-22 07:42:00,
2014-08-22 03:47:00,68.6,68.0,29.94,WNW,294,0.0,0.0,98,0.00,,BKN085,0.34,VWS V15.00,2014-08-22 07:47:00,
2014-08-22 03:52:00,68.5,67.9,29.94,WNW,294,0.0,0.0,98,0.00,,BKN085,0.34,VWS V15.00,2014-08-22 07:52:00,
2014-08-22 03:57:00,68.3,67.7,29.94,WNW,294,0.0,0.0,98,0.00,,BKN085,0.34,VWS V15.00,2014-08-22 07:57:00,
2014-08-22 04:02:00,68.2,67.6,29.94,WNW,294,0.0,0.0,98,0.00,,BKN085,0.34,VWS V15.00,2014-08-22 08:02:00,
2014-08-22 04:07:00,68.2,67.6,29.94,WNW,294,0.0,0.0,98,0.00,,BKN085,0.34,VWS V15.00,2014-08-22 08:07:00,
2014-08-22 04:12:00,68.1,67.5,29.94,WNW,294,0.0,0.0,98,0.00,,BKN085,0.34,VWS V15.00,2014-08-22 08:12:00,
2014-08-22 04:17:00,68.0,67.4,29.94,WNW,294,0.0,0.0,98,0.00,,BKN085,0.34,VWS V15.00,2014-08-22 08:17:00,
2014-08-22 04:22:00,67.9,67.3,29.94,WNW,294,0.0,0.0,98,0.00,,BKN085,0.34,VWS V15.00,2014-08-22 08:22:00,
2014-08-22 04:27:00,67.8,67.2,29.94,WNW,294,0.0,0.0,98,0.00,,BKN085,0.34,VWS V15.00,2014-08-22 08:27:00,
2014-08-22 04:32:00,67.7,67.1,29.94,WNW,294,0.0,0.0,98,0.00,,BKN085,0.34,VWS V15.00,2014-08-22 08:32:00,
2014-08-22 04:37:00,67.6,67.0,29.94,WNW,294,0.0,0.0,98,0.00,,BKN085,0.34,VWS V15.00,2014-08-22 08:37:00,
2014-08-22 04:42:00,67.5,66.9,29.95,WNW,294,0.0,0.0,98,0.00,,CLR,0.34,VWS V15.00,2014-08-22 08:42:00,
2014-08-22 04:47:00,67.4,66.8,29.95,WNW,294,0.0,0.0,98,0.00,,CLR,0.34,VWS V15.00,2014-08-22 08:47:00,
2014-08-22 04:52:00,67.3,66.7,29.95,WNW,294,0.0,0.0,98,0.00,,,0.34,VWS V15.00,2014-08-22 08:52:00,
2014-08-22 04:57:00,67.3,66.7,29.95,WNW,294,0.0,0.0,98,0.00,,,0.34,VWS V15.00,2014-08-22 08:57:00,
2014-08-22 05:02:00,67.5,66.9,29.95,WNW,294,0.0,0.0,98,0.00,,,0.34,VWS V15.00,2014-08-22 09:02:00,
2014-08-22 05:07:00,67.6,67.0,29.95,WNW,294,0.0,0.0,98,0.00,,,0.34,VWS V15.00,2014-08-22 09:07:00,
2014-08-22 05:12:00,67.7,67.1,29.95,WNW,294,0.0,0.0,98,0.00,,,0.34,VWS V15.00,2014-08-22 09:12:00,
2014-08-22 05:17:00,67.8,67.2,29.95,WNW,294,0.0,0.0,98,0.00,,,0.34,VWS V15.00,2014-08-22 09:17:00,
2014-08-22 05:22:00,67.9,67.3,29.95,WNW,294,0.0,0.0,98,0.00,,,0.34,VWS V15.00,2014-08-22 09:22:00,
2014-08-22 05:27:00,67.9,67.6,29.95,WNW,294,0.0,0.0,99,0.00,,,0.34,VWS V15.00,2014-08-22 09:27:00,
2014-08-22 05:32:00,68.0,67.7,29.95,WNW,294,0.0,0.0,99,0.00,,,0.34,VWS V15.00,2014-08-22 09:32:00,
2014-08-22 05:37:00,68.0,67.7,29.95,WNW,294,0.0,0.0,99,0.00,,,0.34,VWS V15.00,2014-08-22 09:37:00,
2014-08-22 05:42:00,68.0,67.4,29.96,WNW,294,0.0,0.0,98,0.00,,,0.34,VWS V15.00,2014-08-22 09:42:00,
2014-08-22 05:47:00,67.9,67.3,29.96,WNW,294,0.0,0.0,98,0.00,,,0.34,VWS V15.00,2014-08-22 09:47:00,
2014-08-22 05:52:00,67.9,67.3,29.95,WNW,294,0.0,0.0,98,0.00,,,0.34,VWS V15.00,2014-08-22 09:52:00,
2014-08-22 05:57:00,67.9,67.6,29.95,WNW,294,0.0,0.0,99,0.00,,,0.34,VWS V15.00,2014-08-22 09:57:00,
2014-08-22 06:02:00,68.0,67.7,29.96,WNW,294,0.0,0.0,99,0.00,,,0.34,VWS V15.00,2014-08-22 10:02:00,
2014-08-22 06:07:00,68.1,67.8,29.95,WNW,294,0.0,0.0,99,0.00,,,0.34,VWS V15.00,2014-08-22 10:07:00,
2014-08-22 06:12:00,68.3,68.0,29.95,WNW,294,0.0,0.0,99,0.00,,,0.34,VWS V15.00,2014-08-22 10:12:00,
2014-08-22 06:17:00,68.3,68.0,29.95,WNW,294,0.0,0.0,99,0.00,,,0.34,VWS V15.00,2014-08-22 10:17:00,
2014-08-22 06:22:00,68.3,68.0,29.95,WNW,294,0.0,0.0,99,0.00,,,0.34,VWS V15.00,2014-08-22 10:22:00,
2014-08-22 06:27:00,68.3,68.0,29.95,WNW,294,0.0,0.0,99,0.00,,,0.34,VWS V15.00,2014-08-22 10:27:00,
2014-08-22 06:32:00,68.3,68.0,29.96,WNW,294,0.0,0.0,99,0.00,,,0.34,VWS V15.00,2014-08-22 10:32:00,
2014-08-22 06:37:00,68.2,67.6,29.96,WNW,294,0.0,0.0,98,0.00,,,0.34,VWS V15.00,2014-08-22 10:37:00,
2014-08-22 06:42:00,68.2,67.9,29.96,WNW,294,0.0,0.0,99,0.00,,OVC055,0.34,VWS V15.00,2014-08-22 10:42:00,
2014-08-22 06:47:00,68.2,67.9,29.97,WNW,294,0.0,0.0,99,0.00,,OVC055,0.34,VWS V15.00,2014-08-22 10:47:00,
2014-08-22 06:52:00,68.2,67.9,29.97,WNW,294,0.0,0.0,99,0.00,,OVC055,0.34,VWS V15.00,2014-08-22 10:52:00,
2014-08-22 06:57:00,68.3,68.0,29.97,WNW,294,0.0,0.0,99,0.00,,OVC055,0.34,VWS V15.00,2014-08-22 10:57:00,
2014-08-22 07:02:00,68.4,68.1,29.97,WNW,294,0.0,0.0,99,0.00,,OVC055,0.34,VWS V15.00,2014-08-22 11:02:00,
2014-08-22 07:07:00,68.5,68.2,29.97,WNW,294,0.0,0.0,99,0.00,,OVC055,0.34,VWS V15.00,2014-08-22 11:07:00,
2014-08-22 07:12:00,68.6,68.3,29.98,WNW,294,0.0,0.0,99,0.00,,OVC055,0.34,VWS V15.00,2014-08-22 11:12:00,
2014-08-22 07:17:00,68.6,68.3,29.97,WNW,294,0.0,0.0,99,0.00,,OVC055,0.34,VWS V15.00,2014-08-22 11:17:00,
2014-08-22 07:22:00,68.6,68.3,29.97,WNW,294,0.0,0.0,99,0.00,,OVC055,0.34,VWS V15.00,2014-08-22 11:22:00,
2014-08-22 07:27:00,68.6,68.3,29.97,WNW,294,0.0,1.0,99,0.00,,OVC055,0.34,VWS V15.00,2014-08-22 11:27:00,
2014-08-22 07:32:00,68.7,68.4,29.97,WNW,294,0.0,0.0,99,0.00,,OVC055,0.34,VWS V15.00,2014-08-22 11:32:00,
2014-08-22 07:37:00,68.6,68.3,29.98,WNW,294,0.0,0.0,99,0.00,,OVC055,0.34,VWS V15.00,2014-08-22 11:37:00,
2014-08-22 07:42:00,68.7,68.4,29.98,WNW,294,0.0,0.0,99,0.00,,,0.34,VWS V15.00,2014-08-22 11:42:00,
2014-08-22 07:47:00,68.7,68.4,29.98,WNW,294,0.0,0.0,99,0.00,,,0.34,VWS V15.00,2014-08-22 11:47:00,
2014-08-22 07:52:00,68.7,68.4,29.98,WNW,294,0.0,0.0,99,0.00,,,0.34,VWS V15.00,2014-08-22 11:52:00,
2014-08-22 07:57:00,68.9,68.6,29.98,WNW,294,0.0,0.0,99,0.00,,,0.34,VWS V15.00,2014-08-22 11:57:00,
2014-08-22 08:02:00,68.9,68.6,29.98,WNW,294,0.0,0.0,99,0.00,,,0.34,VWS V15.00,2014-08-22 12:02:00,
2014-08-22 08:07:00,69.0,68.7,29.98,WNW,294,0.0,0.0,99,0.00,,,0.34,VWS V15.00,2014-08-22 12:07:00,
2014-08-22 08:12:00,69.0,68.7,29.98,WNW,294,0.0,0.0,99,0.00,,,0.34,VWS V15.00,2014-08-22 12:12:00,
2014-08-22 08:17:00,69.1,68.8,29.99,WNW,294,0.0,0.0,99,0.00,,,0.34,VWS V15.00,2014-08-22 12:17:00,
2014-08-22 08:22:00,69.1,68.8,29.99,WNW,294,0.0,0.0,99,0.00,,,0.34,VWS V15.00,2014-08-22 12:22:00,
2014-08-22 08:27:00,69.2,68.9,29.99,WNW,294,0.0,0.0,99,0.00,,,0.34,VWS V15.00,2014-08-22 12:27:00,
2014-08-22 08:32:00,69.3,69.0,30.00,WNW,294,0.0,0.0,99,0.00,,,0.34,VWS V15.00,2014-08-22 12:32:00,
2014-08-22 08:37:00,69.4,69.1,30.00,WNW,294,0.0,0.0,99,0.00,,,0.34,VWS V15.00,2014-08-22 12:37:00,
2014-08-22 08:42:00,69.4,69.1,29.99,WNW,294,0.0,0.0,99,0.00,,,0.34,VWS V15.00,2014-08-22 12:42:00,
2014-08-22 08:47:00,69.5,69.2,29.99,WNW,294,0.0,0.0,99,0.00,,,0.34,VWS V15.00,2014-08-22 12:47:00,
2014-08-22 08:52:00,69.6,69.3,29.99,WNW,294,0.0,0.0,99,0.00,,,0.34,VWS V15.00,2014-08-22 12:52:00,
2014-08-22 08:57:00,69.7,69.4,29.99,WNW,294,0.0,0.0,99,0.00,,,0.34,VWS V15.00,2014-08-22 12:57:00,
2014-08-22 09:02:00,69.8,69.5,29.99,WNW,294,0.0,0.0,99,0.00,,,0.34,VWS V15.00,2014-08-22 13:02:00,
2014-08-22 09:07:00,70.0,69.7,29.99,WNW,294,0.0,1.0,99,0.00,,,0.34,VWS V15.00,2014-08-22 13:07:00,
2014-08-22 09:12:00,70.0,69.7,29.99,WNW,294,0.0,0.0,99,0.00,,,0.34,VWS V15.00,2014-08-22 13:12:00,
2014-08-22 09:17:00,70.2,69.9,29.99,WNW,294,0.0,0.0,99,0.00,,,0.34,VWS V15.00,2014-08-22 13:17:00,
2014-08-22 09:22:00,70.2,69.9,29.98,WNW,294,0.0,0.0,99,0.00,,,0.34,VWS V15.00,2014-08-22 13:22:00,
2014-08-22 09:27:00,70.3,70.0,29.98,WNW,294,0.0,1.0,99,0.00,,,0.34,VWS V15.00,2014-08-22 13:27:00,
2014-08-22 09:32:00,70.4,70.1,29.98,WNW,294,0.0,0.0,99,0.00,,,0.34,VWS V15.00,2014-08-22 13:32:00,
2014-08-22 09:37:00,70.5,70.2,29.99,WNW,294,0.0,1.0,99,0.00,,,0.34,VWS V15.00,2014-08-22 13:37:00,
2014-08-22 09:42:00,70.6,70.6,29.99,WNW,294,0.0,1.0,100,0.00,,,0.34,VWS V15.00,2014-08-22 13:42:00,
2014-08-22 09:47:00,70.8,70.8,29.99,WNW,294,0.0,1.0,100,0.00,,,0.34,VWS V15.00,2014-08-22 13:47:00,
2014-08-22 09:52:00,70.8,70.8,29.99,WNW,294,0.0,0.0,100,0.00,,,0.34,VWS V15.00,2014-08-22 13:52:00,
2014-08-22 09:57:00,71.0,70.7,29.99,WNW,294,0.0,0.0,99,0.00,,,0.34,VWS V15.00,2014-08-22 13:57:00,
2014-08-22 10:02:00,71.0,70.7,29.99,WNW,294,0.0,0.0,99,0.00,,,0.34,VWS V15.00,2014-08-22 14:02:00,
2014-08-22 10:07:00,71.0,70.7,29.99,WNW,294,0.0,1.0,99,0.00,,,0.34,VWS V15.00,2014-08-22 14:07:00,
2014-08-22 10:12:00,71.2,70.9,30.00,WNW,294,0.0,0.0,99,0.00,,,0.34,VWS V15.00,2014-08-22 14:12:00,
2014-08-22 10:18:00,71.4,71.4,29.99,WNW,294,1.0,1.0,100,0.00,,,0.34,VWS V15.00,2014-08-22 14:18:00,
2014-08-22 10:23:00,71.4,71.4,29.99,WNW,294,0.0,1.0,100,0.00,,,0.34,VWS V15.00,2014-08-22 14:23:00,
2014-08-22 10:28:00,71.5,71.5,29.99,WNW,294,0.0,1.0,100,0.00,,,0.34,VWS V15.00,2014-08-22 14:28:00,
2014-08-22 10:33:00,71.7,71.7,29.99,WNW,294,0.0,0.0,100,0.00,,,0.34,VWS V15.00,2014-08-22 14:33:00,
2014-08-22 10:38:00,71.8,71.8,29.99,WNW,294,0.0,1.0,100,0.00,,,0.34,VWS V15.00,2014-08-22 14:38:00,
2014-08-22 10:43:00,71.9,71.9,29.99,WNW,294,0.0,0.0,100,0.00,,,0.34,VWS V15.00,2014-08-22 14:43:00,
2014-08-22 10:48:00,72.1,72.1,29.99,WNW,294,0.0,0.0,100,0.00,,,0.34,VWS V15.00,2014-08-22 14:48:00,
2014-08-22 10:53:00,72.2,72.2,29.99,WNW,294,0.0,1.0,100,0.00,,,0.34,VWS V15.00,2014-08-22 14:53:00,
2014-08-22 10:58:00,72.4,72.4,29.98,WNW,294,0.0,1.0,100,0.00,,,0.34,VWS V15.00,2014-08-22 14:58:00,
2014-08-22 11:03:00,72.7,72.7,29.98,WNW,294,0.0,0.0,100,0.00,,,0.34,VWS V15.00,2014-08-22 15:03:00,
2014-08-22 11:08:00,73.1,73.1,29.98,WNW,294,0.0,1.0,100,0.00,,,0.34,VWS V15.00,2014-08-22 15:08:00,
2014-08-22 11:13:00,73.4,73.4,29.98,WNW,294,0.0,2.0,100,0.00,,,0.34,VWS V15.00,2014-08-22 15:13:00,
2014-08-22 11:18:00,73.6,73.6,29.97,WNW,294,1.0,2.0,100,0.00,,,0.34,VWS V15.00,2014-08-22 15:18:00,
2014-08-22 11:23:00,73.3,73.3,29.97,WNW,294,0.0,1.0,100,0.00,,,0.34,VWS V15.00,2014-08-22 15:23:00,
2014-08-22 11:28:00,73.6,73.3,29.97,WNW,294,0.0,1.0,99,0.00,,,0.34,VWS V15.00,2014-08-22 15:28:00,
2014-08-22 11:33:00,73.7,73.4,29.97,WNW,294,0.0,0.0,99,0.00,,,0.34,VWS V15.00,2014-08-22 15:33:00,
2014-08-22 11:38:00,74.0,73.7,29.97,WNW,294,0.0,1.0,99,0.00,,,0.34,VWS V15.00,2014-08-22 15:38:00,
2014-08-22 11:43:00,74.4,74.1,29.96,WNW,294,0.0,1.0,99,0.00,,,0.34,VWS V15.00,2014-08-22 15:43:00,
2014-08-22 11:48:00,74.6,74.3,29.96,WNW,294,0.0,1.0,99,0.00,,,0.34,VWS V15.00,2014-08-22 15:48:00,
2014-08-22 11:53:00,74.9,74.3,29.96,WNW,294,0.0,1.0,98,0.00,,,0.34,VWS V15.00,2014-08-22 15:53:00,
2014-08-22 11:58:00,75.1,74.2,29.96,WNW,294,1.0,2.0,97,0.00,,,0.34,VWS V15.00,2014-08-22 15:58:00,
2014-08-22 12:03:00,75.4,74.2,29.95,WNW,294,0.0,1.0,96,0.00,,,0.34,VWS V15.00,2014-08-22 16:03:00,
2014-08-22 12:08:00,75.7,74.5,29.95,WNW,294,0.0,1.0,96,0.00,,,0.34,VWS V15.00,2014-08-22 16:08:00,
2014-08-22 12:13:00,75.9,74.4,29.95,WNW,294,0.0,0.0,95,0.00,,,0.34,VWS V15.00,2014-08-22 16:13:00,
2014-08-22 12:18:00,76.0,74.2,29.96,South,180,0.0,3.0,94,0.00,,,0.34,VWS V15.00,2014-08-22 16:18:00,
2014-08-22 12:23:00,76.3,74.4,29.95,SE,132,0.0,2.0,94,0.00,,,0.34,VWS V15.00,2014-08-22 16:23:00,
2014-08-22 12:28:00,76.9,75.1,29.95,ENE,74,0.0,2.0,94,0.00,,,0.34,VWS V15.00,2014-08-22 16:28:00,
2014-08-22 12:33:00,77.3,75.1,29.96,ENE,74,0.0,1.0,93,0.00,,,0.34,VWS V15.00,2014-08-22 16:33:00,
2014-08-22 12:38:00,77.7,75.2,29.96,ENE,74,0.0,1.0,92,0.00,,,0.34,VWS V15.00,2014-08-22 16:38:00,
2014-08-22 12:43:00,78.2,75.4,29.96,East,85,0.0,1.0,91,0.00,,BKN013,0.34,VWS V15.00,2014-08-22 16:43:00,
2014-08-22 12:48:00,78.7,75.5,29.96,East,85,0.0,2.0,90,0.00,,BKN013,0.34,VWS V15.00,2014-08-22 16:48:00,
2014-08-22 12:53:00,79.0,75.5,29.96,ESE,120,1.0,2.0,89,0.00,,OVC016,0.34,VWS V15.00,2014-08-22 16:53:00,
2014-08-22 12:58:00,79.3,75.4,29.96,ESE,120,0.0,2.0,88,0.00,,OVC016,0.34,VWS V15.00,2014-08-22 16:58:00,
2014-08-22 13:03:00,79.6,75.7,29.96,ESE,120,0.0,0.0,88,0.00,,OVC016,0.34,VWS V15.00,2014-08-22 17:03:00,
2014-08-22 13:08:00,79.7,75.5,29.96,ESE,113,0.0,1.0,87,0.00,,OVC016,0.34,VWS V15.00,2014-08-22 17:08:00,
2014-08-22 13:13:00,80.0,75.8,29.96,ESE,113,0.0,0.0,87,0.00,,OVC016,0.34,VWS V15.00,2014-08-22 17:13:00,
2014-08-22 13:18:00,80.3,75.7,29.96,ESE,113,0.0,1.0,86,0.00,,OVC016,0.34,VWS V15.00,2014-08-22 17:18:00,
2014-08-22 13:23:00,80.5,75.6,29.96,ESE,113,0.0,0.0,85,0.00,,OVC016,0.34,VWS V15.00,2014-08-22 17:23:00,
2014-08-22 13:28:00,80.4,75.5,29.96,ESE,113,0.0,1.0,85,0.00,,OVC016,0.34,VWS V15.00,2014-08-22 17:28:00,
2014-08-22 13:33:00,80.5,75.6,29.95,ESE,113,0.0,0.0,85,0.00,,OVC016,0.34,VWS V15.00,2014-08-22 17:33:00,
2014-08-22 13:38:00,80.7,76.1,29.95,ESE,113,0.0,0.0,86,0.00,,OVC016,0.34,VWS V15.00,2014-08-22 17:38:00,
2014-08-22 13:43:00,80.9,76.3,29.95,ESE,113,0.0,0.0,86,0.00,,OVC016,0.34,VWS V15.00,2014-08-22 17:43:00,
2014-08-22 13:48:00,80.9,75.6,29.95,SSW,192,1.0,2.0,84,0.00,,OVC016,0.34,VWS V15.00,2014-08-22 17:48:00,
2014-08-22 13:53:00,80.5,75.2,29.95,ESE,121,0.0,1.0,84,0.00,,OVC016,0.34,VWS V15.00,2014-08-22 17:53:00,
2014-08-22 13:58:00,80.5,75.6,29.94,ESE,121,0.0,2.0,85,0.00,,OVC016,0.34,VWS V15.00,2014-08-22 17:58:00,
2014-08-22 14:03:00,80.8,75.9,29.95,ESE,121,0.0,2.0,85,0.00,,OVC016,0.34,VWS V15.00,2014-08-22 18:03:00,
2014-08-22 14:08:00,80.9,75.3,29.94,SE,142,0.0,2.0,83,0.00,,OVC016,0.34,VWS V15.00,2014-08-22 18:08:00,
2014-08-22 14:13:00,80.9,75.6,29.95,SE,132,0.0,2.0,84,0.00,,OVC016,0.34,VWS V15.00,2014-08-22 18:13:00,
2014-08-22 14:18:00,81.0,75.7,29.95,South,178,0.0,2.0,84,0.00,,OVC016,0.34,VWS V15.00,2014-08-22 18:18:00,
2014-08-22 14:23:00,81.1,75.4,29.95,South,186,0.0,1.0,83,0.00,,OVC016,0.34,VWS V15.00,2014-08-22 18:23:00,
2014-08-22 14:28:00,81.0,75.0,29.95,SSW,209,0.0,3.0,82,0.00,,OVC016,0.34,VWS V15.00,2014-08-22 18:28:00,
2014-08-22 14:33:00,81.0,75.0,29.95,SSW,210,0.0,2.0,82,0.00,,OVC016,0.34,VWS V15.00,2014-08-22 18:33:00,
2014-08-22 14:38:00,81.2,75.6,29.95,SE,144,0.0,2.0,83,0.00,,OVC016,0.34,VWS V15.00,2014-08-22 18:38:00,
2014-08-22 14:43:00,81.3,75.7,29.95,SSW,193,0.0,1.0,83,0.00,,BKN110,0.34,VWS V15.00,2014-08-22 18:43:00,
2014-08-22 14:48:00,81.3,75.7,29.95,WSW,258,2.0,3.0,83,0.00,,BKN110,0.34,VWS V15.00,2014-08-22 18:48:00,
2014-08-22 14:53:00,81.3,75.7,29.95,South,169,0.0,3.0,83,0.00,,BKN120,0.34,VWS V15.00,2014-08-22 18:53:00,
2014-08-22 14:58:00,81.6,75.2,29.94,West,277,0.0,5.0,81,0.00,,BKN120,0.34,VWS V15.00,2014-08-22 18:58:00,
2014-08-22 15:03:00,81.8,75.4,29.94,SSE,165,0.0,2.0,81,0.00,,BKN120,0.34,VWS V15.00,2014-08-22 19:03:00,
2014-08-22 15:08:00,82.0,75.6,29.94,SSE,167,1.0,2.0,81,0.00,,BKN120,0.34,VWS V15.00,2014-08-22 19:08:00,
2014-08-22 15:13:00,82.3,76.3,29.94,South,180,0.0,1.0,82,0.00,,BKN120,0.34,VWS V15.00,2014-08-22 19:13:00,
2014-08-22 15:18:00,82.3,75.1,29.94,SSW,202,1.0,1.0,79,0.00,,BKN120,0.34,VWS V15.00,2014-08-22 19:18:00,
2014-08-22 15:23:00,82.3,75.5,29.94,WSW,258,0.0,0.0,80,0.00,,BKN120,0.34,VWS V15.00,2014-08-22 19:23:00,
2014-08-22 15:28:00,82.2,75.4,29.95,West,261,1.0,2.0,80,0.00,,BKN120,0.34,VWS V15.00,2014-08-22 19:28:00,
2014-08-22 15:33:00,82.2,75.8,29.94,West,261,0.0,1.0,81,0.00,,BKN120,0.34,VWS V15.00,2014-08-22 19:33:00,
2014-08-22 15:38:00,82.2,76.2,29.94,ENE,63,1.0,1.0,82,0.00,,BKN120,0.34,VWS V15.00,2014-08-22 19:38:00,
2014-08-22 15:43:00,82.2,75.8,29.94,NNW,329,0.0,1.0,81,0.00,,BKN036,0.34,VWS V15.00,2014-08-22 19:43:00,
2014-08-22 15:48:00,82.2,75.8,29.93,NNW,341,0.0,2.0,81,0.00,,BKN036,0.34,VWS V15.00,2014-08-22 19:48:00,
2014-08-22 15:53:00,82.3,75.9,29.93,SW,224,0.0,1.0,81,0.00,,BKN039,0.34,VWS V15.00,2014-08-22 19:53:00,
2014-08-22 15:58:00,82.3,75.9,29.93,SW,224,0.0,1.0,81,0.00,,BKN039,0.34,VWS V15.00,2014-08-22 19:58:00,
2014-08-22 16:03:00,82.3,75.9,29.93,SW,223,0.0,0.0,81,0.00,,BKN039,0.34,VWS V15.00,2014-08-22 20:03:00,
2014-08-22 16:08:00,82.1,75.3,29.93,East,91,0.0,2.0,80,0.00,,BKN039,0.34,VWS V15.00,2014-08-22 20:08:00,
2014-08-22 16:13:00,82.0,75.2,29.92,East,91,0.0,1.0,80,0.00,,BKN039,0.34,VWS V15.00,2014-08-22 20:13:00,
2014-08-22 16:19:00,81.9,75.1,29.93,East,91,0.0,1.0,80,0.00,,BKN039,0.34,VWS V15.00,2014-08-22 20:19:00,
2014-08-22 16:24:00,81.9,74.8,29.93,East,91,0.0,1.0,79,0.00,,BKN039,0.34,VWS V15.00,2014-08-22 20:24:00,
2014-08-22 16:29:00,82.0,75.6,29.93,East,91,0.0,2.0,81,0.00,,BKN039,0.34,VWS V15.00,2014-08-22 20:29:00,
2014-08-22 16:34:00,82.1,75.3,29.93,ESE,117,0.0,1.0,80,0.00,,BKN039,0.34,VWS V15.00,2014-08-22 20:34:00,
2014-08-22 16:39:00,82.2,75.8,29.93,ESE,117,0.0,1.0,81,0.00,,BKN039,0.34,VWS V15.00,2014-08-22 20:39:00,
2014-08-22 16:44:00,82.1,75.3,29.93,ESE,117,0.0,1.0,80,0.00,,BKN042,0.34,VWS V15.00,2014-08-22 20:44:00,
2014-08-22 16:49:00,82.1,75.3,29.93,ESE,117,0.0,1.0,80,0.00,,BKN042,0.34,VWS V15.00,2014-08-22 20:49:00,
2014-08-22 16:54:00,82.0,75.2,29.93,ESE,117,0.0,0.0,80,0.00,,BKN080,0.34,VWS V15.00,2014-08-22 20:54:00,
2014-08-22 16:59:00,81.9,75.5,29.93,ESE,117,0.0,1.0,81,0.00,,BKN080,0.34,VWS V15.00,2014-08-22 20:59:00,
2014-08-22 17:04:00,81.8,75.8,29.93,ESE,117,0.0,0.0,82,0.00,,BKN080,0.34,VWS V15.00,2014-08-22 21:04:00,
2014-08-22 17:09:00,81.6,75.6,29.92,ESE,117,0.0,0.0,82,0.00,,BKN080,0.34,VWS V15.00,2014-08-22 21:09:00,
2014-08-22 17:14:00,81.2,75.6,29.92,ESE,117,0.0,1.0,83,0.00,,BKN080,0.34,VWS V15.00,2014-08-22 21:14:00,
2014-08-22 17:19:00,80.6,75.7,29.93,ESE,117,0.0,1.0,85,0.00,,BKN080,0.34,VWS V15.00,2014-08-22 21:19:00,
2014-08-22 17:24:00,80.2,75.6,29.92,ESE,117,0.0,0.0,86,0.00,,BKN080,0.34,VWS V15.00,2014-08-22 21:24:00,
2014-08-22 17:29:00,79.9,75.7,29.93,ESE,117,0.0,0.0,87,0.00,,BKN080,0.34,VWS V15.00,2014-08-22 21:29:00,
2014-08-22 17:34:00,79.7,75.8,29.93,ESE,117,0.0,0.0,88,0.00,,BKN080,0.34,VWS V15.00,2014-08-22 21:34:00,
2014-08-22 17:39:00,79.5,75.6,29.92,ESE,117,0.0,0.0,88,0.00,,BKN080,0.34,VWS V15.00,2014-08-22 21:39:00,
2014-08-22 17:44:00,79.3,75.8,29.92,ESE,117,0.0,0.0,89,0.00,,OVC075,0.34,VWS V15.00,2014-08-22 21:44:00,
2014-08-22 17:49:00,79.1,75.9,29.92,ESE,117,0.0,0.0,90,0.01,,OVC075,0.35,VWS V15.00,2014-08-22 21:49:00,
2014-08-22 17:54:00,79.1,75.9,29.92,ESE,117,0.0,0.0,90,0.01,,OVC075,0.35,VWS V15.00,2014-08-22 21:54:00,
2014-08-22 17:59:00,79.2,76.3,29.92,ESE,117,0.0,1.0,91,0.01,,OVC075,0.35,VWS V15.00,2014-08-22 21:59:00,
2014-08-22 18:04:00,79.3,76.1,29.92,ESE,117,0.0,0.0,90,0.01,,OVC075,0.35,VWS V15.00,2014-08-22 22:04:00,
2014-08-22 18:09:00,79.3,76.1,29.92,ESE,117,0.0,0.0,90,0.01,,OVC075,0.35,VWS V15.00,2014-08-22 22:09:00,
2014-08-22 18:14:00,79.5,76.7,29.91,ESE,117,0.0,0.0,91,0.01,,OVC075,0.35,VWS V15.00,2014-08-22 22:14:00,
2014-08-22 18:19:00,79.9,77.0,29.91,ESE,117,0.0,1.0,91,0.01,,OVC075,0.35,VWS V15.00,2014-08-22 22:19:00,
2014-08-22 18:24:00,80.2,77.0,29.91,ESE,117,0.0,1.0,90,0.01,,OVC075,0.35,VWS V15.00,2014-08-22 22:24:00,
2014-08-22 18:29:00,80.6,77.4,29.91,ESE,117,0.0,1.0,90,0.01,,OVC075,0.35,VWS V15.00,2014-08-22 22:29:00,
2014-08-22 18:34:00,80.9,77.4,29.91,SSE,150,0.0,2.0,89,0.01,,OVC075,0.35,VWS V15.00,2014-08-22 22:34:00,
2014-08-22 18:39:00,81.4,77.8,29.91,SSE,150,0.0,2.0,89,0.01,,OVC075,0.35,VWS V15.00,2014-08-22 22:39:00,
2014-08-22 18:44:00,81.7,77.8,29.91,SSE,150,0.0,0.0,88,0.01,,BKN100,0.35,VWS V15.00,2014-08-22 22:44:00,
2014-08-22 18:49:00,81.8,77.6,29.91,SSE,150,0.0,0.0,87,0.01,,BKN100,0.35,VWS V15.00,2014-08-22 22:49:00,
2014-08-22 18:54:00,81.8,77.2,29.91,SSE,152,0.0,1.0,86,0.00,,BKN100,0.35,VWS V15.00,2014-08-22 22:54:00,
2014-08-22 18:59:00,81.7,77.1,29.91,SSE,154,1.0,1.0,86,0.00,,BKN100,0.35,VWS V15.00,2014-08-22 22:59:00,
2014-08-22 19:04:00,81.3,76.7,29.91,SSE,154,0.0,1.0,86,0.00,,BKN100,0.35,VWS V15.00,2014-08-22 23:04:00,
2014-08-22 19:09:00,81.0,76.8,29.91,SSE,154,0.0,1.0,87,0.00,,BKN100,0.35,VWS V15.00,2014-08-22 23:09:00,
2014-08-22 19:14:00,80.9,76.7,29.91,SSE,154,0.0,0.0,87,0.00,,BKN100,0.35,VWS V15.00,2014-08-22 23:14:00,
2014-08-22 19:19:00,80.6,76.4,29.92,SSE,154,0.0,0.0,87,0.00,,BKN100,0.35,VWS V15.00,2014-08-22 23:19:00,
2014-08-22 19:24:00,80.4,76.2,29.92,SSE,154,0.0,0.0,87,0.00,,BKN100,0.35,VWS V15.00,2014-08-22 23:24:00,
2014-08-22 19:29:00,80.2,76.0,29.92,South,191,0.0,2.0,87,0.00,,BKN100,0.35,VWS V15.00,2014-08-22 23:29:00,
2014-08-22 19:34:00,80.2,76.3,29.92,WSW,257,0.0,2.0,88,0.00,,BKN100,0.35,VWS V15.00,2014-08-22 23:34:00,
2014-08-22 19:39:00,80.1,76.2,29.92,WSW,257,0.0,2.0,88,0.00,,BKN100,0.35,VWS V15.00,2014-08-22 23:39:00,
2014-08-22 19:44:00,80.0,76.1,29.92,WSW,257,0.0,1.0,88,0.00,,-RA,0.35,VWS V15.00,2014-08-22 23:44:00,
2014-08-22 19:49:00,79.8,75.9,29.91,WSW,257,0.0,2.0,88,0.00,,-RA,0.35,VWS V15.00,2014-08-22 23:49:00,
2014-08-22 19:54:00,79.7,75.8,29.92,WSW,257,0.0,0.0,88,0.00,,-RA,0.35,VWS V15.00,2014-08-22 23:54:00,
2014-08-22 19:59:00,79.6,75.7,29.92,WSW,257,0.0,0.0,88,0.00,,-RA,0.35,VWS V15.00,2014-08-22 23:59:00,
2014-08-22 20:04:00,79.5,75.6,29.92,WSW,257,0.0,1.0,88,0.00,,-RA,0.35,VWS V15.00,2014-08-23 00:04:00,
2014-08-22 20:09:00,79.4,75.5,29.92,WSW,257,0.0,1.0,88,0.00,,-RA,0.35,VWS V15.00,2014-08-23 00:09:00,
2014-08-22 20:14:00,79.3,75.8,29.92,WSW,257,0.0,2.0,89,0.00,,-RA,0.35,VWS V15.00,2014-08-23 00:14:00,
2014-08-22 20:19:00,79.2,75.7,29.93,WSW,257,0.0,2.0,89,0.00,,-RA,0.35,VWS V15.00,2014-08-23 00:19:00,
2014-08-22 20:24:00,79.1,75.6,29.93,WSW,257,0.0,3.0,89,0.00,,-RA,0.35,VWS V15.00,2014-08-23 00:24:00,
2014-08-22 20:29:00,79.0,75.5,29.93,West,281,1.0,5.0,89,0.00,,-RA,0.35,VWS V15.00,2014-08-23 00:29:00,
2014-08-22 20:34:00,78.9,75.4,29.93,West,281,0.0,4.0,89,0.00,,-RA,0.35,VWS V15.00,2014-08-23 00:34:00,
2014-08-22 20:39:00,78.8,74.9,29.93,West,281,0.0,4.0,88,0.00,,-RA,0.35,VWS V15.00,2014-08-23 00:39:00,
2014-08-22 20:44:00,78.8,74.9,29.93,West,281,0.0,1.0,88,0.00,,-RA,0.35,VWS V15.00,2014-08-23 00:44:00,
2014-08-22 20:49:00,78.7,74.8,29.93,West,281,0.0,1.0,88,0.00,,-RA,0.35,VWS V15.00,2014-08-23 00:49:00,
2014-08-22 20:54:00,78.7,74.8,29.93,West,281,0.0,1.0,88,0.00,,-RA,0.35,VWS V15.00,2014-08-23 00:54:00,
2014-08-22 20:59:00,78.7,75.2,29.93,West,281,0.0,1.0,89,0.00,,-RA,0.35,VWS V15.00,2014-08-23 00:59:00,
2014-08-22 21:04:00,78.6,75.1,29.93,West,281,0.0,0.0,89,0.00,,-RA,0.35,VWS V15.00,2014-08-23 01:04:00,
2014-08-22 21:09:00,78.5,75.0,29.93,West,281,0.0,0.0,89,0.00,,-RA,0.35,VWS V15.00,2014-08-23 01:09:00,
2014-08-22 21:14:00,78.4,74.9,29.93,West,281,0.0,0.0,89,0.00,,-RA,0.35,VWS V15.00,2014-08-23 01:14:00,
2014-08-22 21:19:00,78.2,74.7,29.94,West,281,0.0,0.0,89,0.00,,-RA,0.35,VWS V15.00,2014-08-23 01:19:00,
2014-08-22 21:24:00,78.2,74.7,29.94,West,281,0.0,0.0,89,0.00,,-RA,0.35,VWS V15.00,2014-08-23 01:24:00,
2014-08-22 21:29:00,78.1,74.9,29.95,West,281,0.0,0.0,90,0.00,,-RA,0.35,VWS V15.00,2014-08-23 01:29:00,
2014-08-22 21:34:00,78.0,74.8,29.95,West,281,0.0,0.0,90,0.00,,-RA,0.35,VWS V15.00,2014-08-23 01:34:00,
2014-08-22 21:39:00,77.9,74.7,29.95,West,281,0.0,1.0,90,0.00,,-RA,0.35,VWS V15.00,2014-08-23 01:39:00,
2014-08-22 21:44:00,77.8,74.6,29.95,West,281,1.0,3.0,90,0.00,,FEW040,0.35,VWS V15.00,2014-08-23 01:44:00,
2014-08-22 21:49:00,77.8,74.6,29.95,West,281,0.0,3.0,90,0.00,,FEW040,0.35,VWS V15.00,2014-08-23 01:49:00,